contact:dominique.lefevre@mio.osupytheas.fr, maurice.libes@osupytheas.fr, didier.mallarino@osupytheas.fr
Project:EMSO http://www.emso-fr.org/EMSO-France
Depth: 2436.0 m
Title:EMSO Ligure Ouest : Data MII capteur MICROCAT
DateTime_Computer,Latitude,Longitude,Temperature,Conductivity,Pressure,DateTime_Instrument
DateTime_Computer,Latitude,Longitude,degC,S m-1,dbar,DateTime_Instrument
2019-09-10T00:01:06Z,42.805,6.029,13.2967,4.59971,2469.876,2019-9-10T02:01:29Z
2019-09-10T00:04:09Z,42.805,6.029,13.2965,4.59968,2469.9,2019-9-10T02:04:32Z
2019-09-10T00:07:13Z,42.805,6.029,13.2961,4.59966,2469.853,2019-9-10T02:07:35Z
2019-09-10T00:10:16Z,42.805,6.029,13.2962,4.59968,2469.853,2019-9-10T02:10:38Z
2019-09-10T00:13:19Z,42.805,6.029,13.2964,4.59968,2469.867,2019-9-10T02:13:42Z
2019-09-10T00:16:22Z,42.805,6.029,13.2965,4.59965,2469.9,2019-9-10T02:16:45Z
2019-09-10T00:19:25Z,42.805,6.029,13.2964,4.59963,2469.876,2019-9-10T02:19:48Z
2019-09-10T00:22:29Z,42.805,6.029,13.2965,4.59966,2469.876,2019-9-10T02:22:51Z
2019-09-10T00:25:32Z,42.805,6.029,13.2961,4.59967,2469.876,2019-9-10T02:25:55Z
2019-09-10T00:28:35Z,42.805,6.029,13.2965,4.59967,2469.844,2019-9-10T02:28:58Z
2019-09-10T00:31:38Z,42.805,6.029,13.2962,4.59966,2469.867,2019-9-10T02:32:01Z
2019-09-10T00:34:41Z,42.805,6.029,13.2965,4.59965,2469.89,2019-9-10T02:35:04Z
2019-09-10T00:37:45Z,42.805,6.029,13.2961,4.59964,2469.867,2019-9-10T02:38:07Z
2019-09-10T00:40:48Z,42.805,6.029,13.2962,4.59964,2469.853,2019-9-10T02:41:11Z
2019-09-10T00:43:51Z,42.805,6.029,13.2967,4.59963,2469.853,2019-9-10T02:44:14Z
2019-09-10T00:46:54Z,42.805,6.029,13.2966,4.59966,2469.853,2019-9-10T02:47:17Z
2019-09-10T00:49:58Z,42.805,6.029,13.2963,4.59967,2469.853,2019-9-10T02:50:20Z
2019-09-10T00:53:01Z,42.805,6.029,13.2964,4.59966,2469.844,2019-9-10T02:53:23Z
2019-09-10T00:56:04Z,42.805,6.029,13.2961,4.59964,2469.867,2019-9-10T02:56:27Z
2019-09-10T00:59:07Z,42.805,6.029,13.2966,4.59970,2469.853,2019-9-10T02:59:30Z
2019-09-10T01:02:10Z,42.805,6.029,13.2963,4.59966,2469.89,2019-9-10T03:02:33Z
2019-09-10T01:05:13Z,42.805,6.029,13.2966,4.59964,2469.914,2019-9-10T03:05:36Z
2019-09-10T01:08:17Z,42.805,6.029,13.2967,4.59965,2469.876,2019-9-10T03:08:39Z
2019-09-10T01:11:20Z,42.805,6.029,13.2967,4.59972,2469.853,2019-9-10T03:11:43Z
2019-09-10T01:14:23Z,42.805,6.029,13.2962,4.59966,2469.867,2019-9-10T03:14:46Z
2019-09-10T01:17:26Z,42.805,6.029,13.2961,4.59964,2469.876,2019-9-10T03:17:49Z
2019-09-10T01:20:29Z,42.805,6.029,13.2966,4.59969,2469.853,2019-9-10T03:20:52Z
2019-09-10T01:23:33Z,42.805,6.029,13.2961,4.59966,2469.867,2019-9-10T03:23:55Z
2019-09-10T01:26:36Z,42.805,6.029,13.2964,4.59969,2469.876,2019-9-10T03:26:59Z
2019-09-10T01:29:39Z,42.805,6.029,13.2964,4.59968,2469.853,2019-9-10T03:30:02Z
2019-09-10T01:32:42Z,42.805,6.029,13.2963,4.59964,2469.853,2019-9-10T03:33:05Z
2019-09-10T01:35:45Z,42.805,6.029,13.2961,4.59973,2469.867,2019-9-10T03:36:08Z
2019-09-10T01:38:49Z,42.805,6.029,13.2961,4.59965,2469.9,2019-9-10T03:39:11Z
2019-09-10T01:41:52Z,42.805,6.029,13.2962,4.59969,2469.914,2019-9-10T03:42:14Z
2019-09-10T01:44:55Z,42.805,6.029,13.2972,4.59971,2469.867,2019-9-10T03:45:18Z
2019-09-10T01:47:58Z,42.805,6.029,13.2968,4.59980,2469.876,2019-9-10T03:48:21Z
2019-09-10T01:51:01Z,42.805,6.029,13.2967,4.59971,2469.876,2019-9-10T03:51:24Z
2019-09-10T01:54:05Z,42.805,6.029,13.2967,4.59967,2469.89,2019-9-10T03:54:27Z
2019-09-10T01:57:08Z,42.805,6.029,13.2964,4.59968,2469.89,2019-9-10T03:57:31Z
2019-09-10T02:00:11Z,42.805,6.029,13.2970,4.59966,2469.876,2019-9-10T04:00:34Z
2019-09-10T02:03:14Z,42.805,6.029,13.2964,4.59968,2469.876,2019-9-10T04:03:37Z
2019-09-10T02:06:17Z,42.805,6.029,13.2966,4.59973,2469.853,2019-9-10T04:06:40Z
2019-09-10T02:09:21Z,42.805,6.029,13.2968,4.59975,2469.876,2019-9-10T04:09:43Z
2019-09-10T02:12:24Z,42.805,6.029,13.2965,4.59966,2469.853,2019-9-10T04:12:46Z
2019-09-10T02:15:27Z,42.805,6.029,13.2967,4.59966,2469.914,2019-9-10T04:15:50Z
2019-09-10T02:18:30Z,42.805,6.029,13.2965,4.59982,2469.9,2019-9-10T04:18:53Z
2019-09-10T02:21:33Z,42.805,6.029,13.2964,4.59972,2469.9,2019-9-10T04:21:56Z
2019-09-10T02:24:37Z,42.805,6.029,13.2968,4.59966,2469.9,2019-9-10T04:24:59Z
2019-09-10T02:27:40Z,42.805,6.029,13.2963,4.59971,2469.876,2019-9-10T04:28:02Z
2019-09-10T02:30:43Z,42.805,6.029,13.2968,4.59967,2469.89,2019-9-10T04:31:06Z
2019-09-10T02:33:46Z,42.805,6.029,13.2964,4.59966,2469.876,2019-9-10T04:34:09Z
2019-09-10T02:36:49Z,42.805,6.029,13.2960,4.59967,2469.914,2019-9-10T04:37:12Z
2019-09-10T02:39:53Z,42.805,6.029,13.2963,4.59967,2469.876,2019-9-10T04:40:15Z
2019-09-10T02:42:56Z,42.805,6.029,13.2965,4.59968,2469.876,2019-9-10T04:43:19Z
2019-09-10T02:45:59Z,42.805,6.029,13.2963,4.59969,2469.914,2019-9-10T04:46:22Z
2019-09-10T02:49:02Z,42.805,6.029,13.2961,4.59970,2469.89,2019-9-10T04:49:25Z
2019-09-10T02:52:05Z,42.805,6.029,13.2966,4.59968,2469.876,2019-9-10T04:52:28Z
2019-09-10T02:55:09Z,42.805,6.029,13.2963,4.59968,2469.914,2019-9-10T04:55:31Z
2019-09-10T02:58:12Z,42.805,6.029,13.2969,4.59970,2469.89,2019-9-10T04:58:35Z
2019-09-10T03:01:15Z,42.805,6.029,13.2967,4.59971,2469.923,2019-9-10T05:01:38Z
2019-09-10T03:04:19Z,42.805,6.029,13.2961,4.59969,2469.9,2019-9-10T05:04:41Z
2019-09-10T03:07:22Z,42.805,6.029,13.2961,4.59966,2469.867,2019-9-10T05:07:45Z
2019-09-10T03:10:25Z,42.805,6.029,13.2964,4.59967,2469.876,2019-9-10T05:10:48Z
2019-09-10T03:13:28Z,42.805,6.029,13.2964,4.59964,2469.876,2019-9-10T05:13:51Z
2019-09-10T03:16:31Z,42.805,6.029,13.2966,4.59969,2469.914,2019-9-10T05:16:54Z
2019-09-10T03:19:35Z,42.805,6.029,13.2963,4.59968,2469.9,2019-9-10T05:19:57Z
2019-09-10T03:22:38Z,42.805,6.029,13.2965,4.59970,2469.9,2019-9-10T05:23:00Z
2019-09-10T03:25:41Z,42.805,6.029,13.2964,4.59972,2469.9,2019-9-10T05:26:04Z
2019-09-10T03:28:45Z,42.805,6.029,13.2971,4.59970,2469.89,2019-9-10T05:29:07Z
2019-09-10T03:31:48Z,42.805,6.029,13.2970,4.59971,2469.876,2019-9-10T05:32:10Z
2019-09-10T03:34:51Z,42.805,6.029,13.2967,4.59973,2469.914,2019-9-10T05:35:14Z
2019-09-10T03:37:54Z,42.805,6.029,13.2974,4.59988,2469.937,2019-9-10T05:38:17Z
2019-09-10T03:40:57Z,42.805,6.029,13.2964,4.59968,2469.876,2019-9-10T05:41:20Z
2019-09-10T03:44:01Z,42.805,6.029,13.2964,4.59971,2469.914,2019-9-10T05:44:23Z
2019-09-10T03:47:04Z,42.805,6.029,13.2971,4.59972,2469.937,2019-9-10T05:47:26Z
2019-09-10T03:50:07Z,42.805,6.029,13.2967,4.59970,2469.9,2019-9-10T05:50:30Z
2019-09-10T03:53:10Z,42.805,6.029,13.2962,4.59973,2469.937,2019-9-10T05:53:33Z
2019-09-10T03:56:13Z,42.805,6.029,13.2965,4.59968,2469.914,2019-9-10T05:56:36Z
2019-09-10T03:59:17Z,42.805,6.029,13.2965,4.59968,2469.923,2019-9-10T05:59:39Z
2019-09-10T04:02:20Z,42.805,6.029,13.2961,4.59971,2469.914,2019-9-10T06:02:42Z
2019-09-10T04:05:23Z,42.805,6.029,13.2964,4.59968,2469.923,2019-9-10T06:05:46Z
2019-09-10T04:08:26Z,42.805,6.029,13.2961,4.59970,2469.937,2019-9-10T06:08:49Z
2019-09-10T04:11:29Z,42.805,6.029,13.2962,4.59966,2469.937,2019-9-10T06:11:52Z
2019-09-10T04:14:33Z,42.805,6.029,13.2963,4.59966,2469.97,2019-9-10T06:14:55Z
2019-09-10T04:17:36Z,42.805,6.029,13.2966,4.59966,2469.96,2019-9-10T06:17:58Z
2019-09-10T04:20:39Z,42.805,6.029,13.2967,4.59983,2469.923,2019-9-10T06:21:02Z
2019-09-10T04:23:42Z,42.805,6.029,13.2966,4.59978,2469.914,2019-9-10T06:24:05Z
2019-09-10T04:26:45Z,42.805,6.029,13.2968,4.59967,2469.96,2019-9-10T06:27:08Z
2019-09-10T04:29:49Z,42.805,6.029,13.2962,4.59964,2469.947,2019-9-10T06:30:11Z
2019-09-10T04:32:52Z,42.805,6.029,13.2963,4.59966,2469.9,2019-9-10T06:33:14Z
2019-09-10T04:35:55Z,42.805,6.029,13.2962,4.59965,2469.937,2019-9-10T06:36:18Z
2019-09-10T04:38:58Z,42.805,6.029,13.2963,4.59982,2469.9,2019-9-10T06:39:21Z
2019-09-10T04:42:01Z,42.805,6.029,13.2961,4.59971,2469.923,2019-9-10T06:42:24Z
2019-09-10T04:45:05Z,42.805,6.029,13.2963,4.59998,2469.9,2019-9-10T06:45:27Z
2019-09-10T04:48:08Z,42.805,6.029,13.2968,4.59973,2469.96,2019-9-10T06:48:30Z
2019-09-10T04:51:11Z,42.805,6.029,13.2962,4.59988,2469.937,2019-9-10T06:51:34Z
2019-09-10T04:54:14Z,42.805,6.029,13.2967,4.59969,2469.914,2019-9-10T06:54:37Z
2019-09-10T04:57:17Z,42.805,6.029,13.2963,4.59968,2469.937,2019-9-10T06:57:40Z
2019-09-10T05:00:20Z,42.805,6.029,13.2967,4.59968,2469.937,2019-9-10T07:00:43Z
2019-09-10T05:03:24Z,42.805,6.029,13.2961,4.59967,2469.937,2019-9-10T07:03:46Z
2019-09-10T05:06:27Z,42.805,6.029,13.2970,4.59975,2469.937,2019-9-10T07:06:49Z
2019-09-10T05:09:30Z,42.805,6.029,13.2966,4.59976,2469.9,2019-9-10T07:09:53Z
2019-09-10T05:12:33Z,42.805,6.029,13.2967,4.59966,2469.923,2019-9-10T07:12:56Z
2019-09-10T05:15:36Z,42.805,6.029,13.2964,4.59968,2469.923,2019-9-10T07:15:59Z
2019-09-10T05:18:39Z,42.805,6.029,13.2967,4.59977,2469.937,2019-9-10T07:19:02Z
2019-09-10T05:21:43Z,42.805,6.029,13.2961,4.59973,2469.947,2019-9-10T07:22:05Z
2019-09-10T05:24:46Z,42.805,6.029,13.2970,4.59968,2469.923,2019-9-10T07:25:09Z
2019-09-10T05:27:49Z,42.805,6.029,13.2968,4.59971,2469.923,2019-9-10T07:28:12Z
2019-09-10T05:30:53Z,42.805,6.029,13.2965,4.59973,2469.923,2019-9-10T07:31:15Z
2019-09-10T05:33:56Z,42.805,6.029,13.2964,4.59977,2469.9,2019-9-10T07:34:19Z
2019-09-10T05:36:59Z,42.805,6.029,13.2961,4.59974,2469.96,2019-9-10T07:37:22Z
2019-09-10T05:40:02Z,42.805,6.029,13.2964,4.59968,2469.923,2019-9-10T07:40:25Z
2019-09-10T05:43:06Z,42.805,6.029,13.2961,4.59965,2469.923,2019-9-10T07:43:28Z
2019-09-10T05:46:09Z,42.805,6.029,13.2962,4.59966,2469.947,2019-9-10T07:46:32Z
2019-09-10T05:49:12Z,42.805,6.029,13.2958,4.59968,2469.937,2019-9-10T07:49:35Z
2019-09-10T05:52:15Z,42.805,6.029,13.2964,4.59971,2469.937,2019-9-10T07:52:38Z
2019-09-10T05:55:19Z,42.805,6.029,13.2969,4.59978,2469.914,2019-9-10T07:55:41Z
2019-09-10T05:58:22Z,42.805,6.029,13.2961,4.59972,2469.923,2019-9-10T07:58:44Z
2019-09-10T06:01:25Z,42.805,6.029,13.2958,4.59971,2469.937,2019-9-10T08:01:48Z
2019-09-10T06:04:28Z,42.805,6.029,13.2967,4.59968,2469.914,2019-9-10T08:04:51Z
2019-09-10T06:07:31Z,42.805,6.029,13.2962,4.59968,2469.947,2019-9-10T08:07:54Z
2019-09-10T06:10:35Z,42.805,6.029,13.2963,4.59971,2469.914,2019-9-10T08:10:57Z
2019-09-10T06:13:38Z,42.805,6.029,13.2967,4.59985,2469.89,2019-9-10T08:14:00Z
2019-09-10T06:16:41Z,42.805,6.029,13.2979,4.59996,2469.914,2019-9-10T08:17:04Z
2019-09-10T06:19:44Z,42.805,6.029,13.2976,4.59980,2469.937,2019-9-10T08:20:07Z
2019-09-10T06:22:47Z,42.805,6.029,13.2970,4.59985,2469.9,2019-9-10T08:23:10Z
2019-09-10T06:25:51Z,42.805,6.029,13.2967,4.59976,2469.9,2019-9-10T08:26:13Z
2019-09-10T06:28:54Z,42.805,6.029,13.2968,4.59967,2469.937,2019-9-10T08:29:16Z
2019-09-10T06:31:57Z,42.805,6.029,13.2963,4.59977,2469.947,2019-9-10T08:32:20Z
2019-09-10T06:35:00Z,42.805,6.029,13.2959,4.59968,2469.89,2019-9-10T08:35:23Z
2019-09-10T06:38:03Z,42.805,6.029,13.2966,4.59983,2469.876,2019-9-10T08:38:26Z
2019-09-10T06:41:07Z,42.805,6.029,13.2966,4.59979,2469.876,2019-9-10T08:41:29Z
2019-09-10T06:44:10Z,42.805,6.029,13.2967,4.59972,2469.923,2019-9-10T08:44:32Z
2019-09-10T06:47:13Z,42.805,6.029,13.2969,4.59976,2469.9,2019-9-10T08:47:36Z
2019-09-10T06:50:16Z,42.805,6.029,13.2970,4.59976,2469.914,2019-9-10T08:50:39Z
2019-09-10T06:53:19Z,42.805,6.029,13.2963,4.59971,2469.914,2019-9-10T08:53:42Z
2019-09-10T06:56:23Z,42.805,6.029,13.2967,4.59972,2469.89,2019-9-10T08:56:45Z
2019-09-10T06:59:26Z,42.805,6.029,13.2968,4.59976,2469.9,2019-9-10T08:59:49Z
2019-09-10T07:02:29Z,42.805,6.029,13.2966,4.59963,2469.923,2019-9-10T09:02:52Z
2019-09-10T07:05:32Z,42.805,6.029,13.2962,4.59970,2469.947,2019-9-10T09:05:55Z
2019-09-10T07:08:35Z,42.805,6.029,13.2962,4.59972,2469.914,2019-9-10T09:08:58Z
2019-09-10T07:11:39Z,42.805,6.029,13.2961,4.59969,2469.937,2019-9-10T09:12:01Z
2019-09-10T07:14:42Z,42.805,6.029,13.2965,4.59976,2469.914,2019-9-10T09:15:05Z
2019-09-10T07:17:45Z,42.805,6.029,13.2967,4.59973,2469.914,2019-9-10T09:18:08Z
2019-09-10T07:20:48Z,42.805,6.029,13.2967,4.59975,2469.937,2019-9-10T09:21:11Z
2019-09-10T07:23:52Z,42.805,6.029,13.2967,4.59968,2469.9,2019-9-10T09:24:14Z
2019-09-10T07:26:55Z,42.805,6.029,13.2963,4.59974,2469.876,2019-9-10T09:27:18Z
2019-09-10T07:29:58Z,42.805,6.029,13.2970,4.59967,2469.89,2019-9-10T09:30:21Z
2019-09-10T07:33:01Z,42.805,6.029,13.2961,4.59966,2469.937,2019-9-10T09:33:24Z
2019-09-10T07:36:04Z,42.805,6.029,13.2964,4.59973,2469.89,2019-9-10T09:36:27Z
2019-09-10T07:39:08Z,42.805,6.029,13.2964,4.59978,2469.914,2019-9-10T09:39:30Z
2019-09-10T07:42:11Z,42.805,6.029,13.2967,4.59976,2469.914,2019-9-10T09:42:34Z
2019-09-10T07:45:14Z,42.805,6.029,13.2968,4.59971,2469.9,2019-9-10T09:45:37Z
2019-09-10T07:48:17Z,42.805,6.029,13.2964,4.59974,2469.923,2019-9-10T09:48:40Z
2019-09-10T07:51:21Z,42.805,6.029,13.2970,4.59986,2469.867,2019-9-10T09:51:43Z
2019-09-10T07:54:24Z,42.805,6.029,13.2966,4.59969,2469.923,2019-9-10T09:54:46Z
2019-09-10T07:57:27Z,42.805,6.029,13.2971,4.59983,2469.853,2019-9-10T09:57:50Z
2019-09-10T08:00:30Z,42.805,6.029,13.2967,4.59969,2469.876,2019-9-10T10:00:53Z
2019-09-10T08:03:33Z,42.805,6.029,13.2974,4.59977,2469.9,2019-9-10T10:03:56Z
2019-09-10T08:06:36Z,42.805,6.029,13.2968,4.59974,2469.914,2019-9-10T10:06:59Z
2019-09-10T08:09:40Z,42.805,6.029,13.2965,4.59969,2469.9,2019-9-10T10:10:02Z
2019-09-10T08:12:43Z,42.805,6.029,13.2965,4.59970,2469.9,2019-9-10T10:13:06Z
2019-09-10T08:15:46Z,42.805,6.029,13.2959,4.59987,2469.867,2019-9-10T10:16:09Z
2019-09-10T08:18:50Z,42.805,6.029,13.2964,4.59983,2469.914,2019-9-10T10:19:12Z
2019-09-10T08:21:53Z,42.805,6.029,13.2964,4.59976,2469.89,2019-9-10T10:22:15Z
2019-09-10T08:24:56Z,42.805,6.029,13.2962,4.59973,2469.867,2019-9-10T10:25:19Z
2019-09-10T08:27:59Z,42.805,6.029,13.2964,4.59976,2469.853,2019-9-10T10:28:22Z
2019-09-10T08:31:02Z,42.805,6.029,13.2960,4.59966,2469.867,2019-9-10T10:31:25Z
2019-09-10T08:34:06Z,42.805,6.029,13.2963,4.59967,2469.867,2019-9-10T10:34:28Z
2019-09-10T08:37:09Z,42.805,6.029,13.2959,4.59971,2469.89,2019-9-10T10:37:31Z
2019-09-10T08:40:12Z,42.805,6.029,13.2968,4.59978,2469.89,2019-9-10T10:40:35Z
2019-09-10T08:43:15Z,42.805,6.029,13.2966,4.59968,2469.876,2019-9-10T10:43:38Z
2019-09-10T08:46:18Z,42.805,6.029,13.2965,4.59966,2469.89,2019-9-10T10:46:41Z
2019-09-10T08:49:22Z,42.805,6.029,13.2970,4.59976,2469.853,2019-9-10T10:49:44Z
2019-09-10T08:52:25Z,42.805,6.029,13.2968,4.59987,2469.876,2019-9-10T10:52:47Z
2019-09-10T08:55:28Z,42.805,6.029,13.2968,4.59984,2469.844,2019-9-10T10:55:51Z
2019-09-10T08:58:31Z,42.805,6.029,13.2966,4.59973,2469.89,2019-9-10T10:58:54Z
2019-09-10T09:01:34Z,42.805,6.029,13.2971,4.59981,2469.853,2019-9-10T11:01:57Z
2019-09-10T09:04:37Z,42.805,6.029,13.2963,4.59970,2469.867,2019-9-10T11:05:00Z
2019-09-10T09:07:41Z,42.805,6.029,13.2967,4.59981,2469.853,2019-9-10T11:08:03Z
2019-09-10T09:10:44Z,42.805,6.029,13.2964,4.59971,2469.867,2019-9-10T11:11:07Z
2019-09-10T09:13:47Z,42.805,6.029,13.2968,4.59971,2469.867,2019-9-10T11:14:10Z
2019-09-10T09:16:51Z,42.805,6.029,13.2971,4.59975,2469.89,2019-9-10T11:17:13Z
2019-09-10T09:19:54Z,42.805,6.029,13.2968,4.59978,2469.867,2019-9-10T11:20:16Z
2019-09-10T09:22:57Z,42.805,6.029,13.2968,4.59984,2469.89,2019-9-10T11:23:20Z
2019-09-10T09:26:00Z,42.805,6.029,13.2964,4.59968,2469.853,2019-9-10T11:26:23Z
2019-09-10T09:29:04Z,42.805,6.029,13.2961,4.59964,2469.844,2019-9-10T11:29:26Z
2019-09-10T09:32:07Z,42.805,6.029,13.2964,4.59966,2469.9,2019-9-10T11:32:30Z
2019-09-10T09:35:10Z,42.805,6.029,13.2968,4.59963,2469.853,2019-9-10T11:35:33Z
2019-09-10T09:38:13Z,42.805,6.029,13.2962,4.59966,2469.83,2019-9-10T11:38:36Z
2019-09-10T09:41:17Z,42.805,6.029,13.2959,4.59963,2469.853,2019-9-10T11:41:39Z
2019-09-10T09:44:20Z,42.805,6.029,13.2964,4.59966,2469.83,2019-9-10T11:44:42Z
2019-09-10T09:47:23Z,42.805,6.029,13.2967,4.59977,2469.867,2019-9-10T11:47:46Z
2019-09-10T09:50:26Z,42.805,6.029,13.2967,4.59975,2469.83,2019-9-10T11:50:49Z
2019-09-10T09:53:30Z,42.805,6.029,13.2967,4.59979,2469.853,2019-9-10T11:53:52Z
2019-09-10T09:56:33Z,42.805,6.029,13.2964,4.59970,2469.853,2019-9-10T11:56:55Z
2019-09-10T09:59:36Z,42.805,6.029,13.2965,4.59976,2469.876,2019-9-10T11:59:59Z
2019-09-10T10:02:39Z,42.805,6.029,13.2964,4.59976,2469.867,2019-9-10T12:03:02Z
2019-09-10T10:05:42Z,42.805,6.029,13.2968,4.59987,2469.867,2019-9-10T12:06:05Z
2019-09-10T10:08:45Z,42.805,6.029,13.2968,4.59967,2469.876,2019-9-10T12:09:08Z
2019-09-10T10:11:49Z,42.805,6.029,13.2972,4.59978,2469.867,2019-9-10T12:12:11Z
2019-09-10T10:14:52Z,42.805,6.029,13.2965,4.59978,2469.853,2019-9-10T12:15:15Z
2019-09-10T10:17:55Z,42.805,6.029,13.2966,4.59978,2469.83,2019-9-10T12:18:18Z
2019-09-10T10:20:58Z,42.805,6.029,13.2965,4.59980,2469.83,2019-9-10T12:21:21Z
2019-09-10T10:24:01Z,42.805,6.029,13.2967,4.59967,2469.876,2019-9-10T12:24:24Z
2019-09-10T10:27:05Z,42.805,6.029,13.2966,4.59984,2469.853,2019-9-10T12:27:27Z
2019-09-10T10:30:08Z,42.805,6.029,13.2964,4.59966,2469.867,2019-9-10T12:30:31Z
2019-09-10T10:33:11Z,42.805,6.029,13.2971,4.59975,2469.867,2019-9-10T12:33:34Z
2019-09-10T10:36:14Z,42.805,6.029,13.2965,4.59976,2469.821,2019-9-10T12:36:37Z
2019-09-10T10:39:17Z,42.805,6.029,13.2964,4.59969,2469.844,2019-9-10T12:39:40Z
2019-09-10T10:42:21Z,42.805,6.029,13.2967,4.59981,2469.844,2019-9-10T12:42:43Z
2019-09-10T10:45:24Z,42.805,6.029,13.2961,4.59966,2469.806,2019-9-10T12:45:47Z
2019-09-10T10:48:27Z,42.805,6.029,13.2967,4.59971,2469.844,2019-9-10T12:48:50Z
2019-09-10T10:51:30Z,42.805,6.029,13.2964,4.59976,2469.83,2019-9-10T12:51:53Z
2019-09-10T10:54:33Z,42.805,6.029,13.2963,4.59967,2469.821,2019-9-10T12:54:56Z
2019-09-10T10:57:37Z,42.805,6.029,13.2964,4.59974,2469.83,2019-9-10T12:57:59Z
2019-09-10T11:00:40Z,42.805,6.029,13.2965,4.59976,2469.867,2019-9-10T13:01:02Z
2019-09-10T11:03:43Z,42.805,6.029,13.2967,4.59978,2469.806,2019-9-10T13:04:06Z
2019-09-10T11:06:46Z,42.805,6.029,13.2966,4.59964,2469.821,2019-9-10T13:07:09Z
2019-09-10T11:09:49Z,42.805,6.029,13.2968,4.59984,2469.853,2019-9-10T13:10:12Z
2019-09-10T11:12:53Z,42.805,6.029,13.2961,4.59968,2469.83,2019-9-10T13:13:15Z
2019-09-10T11:15:56Z,42.805,6.029,13.2964,4.59975,2469.83,2019-9-10T13:16:18Z
2019-09-10T11:18:59Z,42.805,6.029,13.2962,4.59965,2469.853,2019-9-10T13:19:22Z
2019-09-10T11:22:02Z,42.805,6.029,13.2964,4.59966,2469.876,2019-9-10T13:22:25Z
2019-09-10T11:25:05Z,42.805,6.029,13.2970,4.59971,2469.816,2019-9-10T13:25:28Z
2019-09-10T11:28:09Z,42.805,6.029,13.2962,4.59964,2469.844,2019-9-10T13:28:32Z
2019-09-10T11:31:12Z,42.805,6.029,13.2968,4.59978,2469.83,2019-9-10T13:31:35Z
2019-09-10T11:34:15Z,42.805,6.029,13.2967,4.59969,2469.821,2019-9-10T13:34:38Z
2019-09-10T11:37:18Z,42.805,6.029,13.2967,4.59968,2469.821,2019-9-10T13:37:41Z
2019-09-10T11:40:22Z,42.805,6.029,13.2968,4.59967,2469.844,2019-9-10T13:40:44Z
2019-09-10T11:43:25Z,42.805,6.029,13.2973,4.59983,2469.867,2019-9-10T13:43:48Z
2019-09-10T11:46:28Z,42.805,6.029,13.2967,4.59970,2469.844,2019-9-10T13:46:51Z
2019-09-10T11:49:31Z,42.805,6.029,13.2964,4.59971,2469.83,2019-9-10T13:49:54Z
2019-09-10T11:52:34Z,42.805,6.029,13.2966,4.59979,2469.83,2019-9-10T13:52:57Z
2019-09-10T11:55:38Z,42.805,6.029,13.2970,4.59972,2469.844,2019-9-10T13:56:00Z
2019-09-10T11:58:41Z,42.805,6.029,13.2966,4.59970,2469.876,2019-9-10T13:59:04Z
2019-09-10T12:01:45Z,42.805,6.029,13.2967,4.59967,2469.853,2019-9-10T14:02:07Z
2019-09-10T12:04:48Z,42.805,6.029,13.2961,4.59965,2469.844,2019-9-10T14:05:11Z
2019-09-10T12:07:51Z,42.805,6.029,13.2963,4.59968,2469.844,2019-9-10T14:08:14Z
2019-09-10T12:10:54Z,42.805,6.029,13.2967,4.59969,2469.867,2019-9-10T14:11:17Z
2019-09-10T12:13:57Z,42.805,6.029,13.2970,4.59973,2469.853,2019-9-10T14:14:20Z
2019-09-10T12:17:01Z,42.805,6.029,13.2967,4.59978,2469.844,2019-9-10T14:17:23Z
2019-09-10T12:20:04Z,42.805,6.029,13.2968,4.59978,2469.83,2019-9-10T14:20:27Z
2019-09-10T12:23:07Z,42.805,6.029,13.2966,4.59971,2469.867,2019-9-10T14:23:30Z
2019-09-10T12:26:10Z,42.805,6.029,13.2969,4.59969,2469.83,2019-9-10T14:26:33Z
2019-09-10T12:29:14Z,42.805,6.029,13.2962,4.59967,2469.876,2019-9-10T14:29:36Z
2019-09-10T12:32:17Z,42.805,6.029,13.2965,4.59965,2469.876,2019-9-10T14:32:39Z
2019-09-10T12:35:20Z,42.805,6.029,13.2970,4.59971,2469.9,2019-9-10T14:35:43Z
2019-09-10T12:38:23Z,42.805,6.029,13.2970,4.59985,2469.876,2019-9-10T14:38:46Z
2019-09-10T12:41:26Z,42.805,6.029,13.2968,4.59973,2469.914,2019-9-10T14:41:49Z
2019-09-10T12:44:29Z,42.805,6.029,13.2967,4.59966,2469.844,2019-9-10T14:44:52Z
2019-09-10T12:47:33Z,42.805,6.029,13.2968,4.59977,2469.876,2019-9-10T14:47:55Z
2019-09-10T12:50:36Z,42.805,6.029,13.2964,4.59968,2469.867,2019-9-10T14:50:59Z
2019-09-10T12:53:39Z,42.805,6.029,13.2968,4.59968,2469.876,2019-9-10T14:54:02Z
2019-09-10T12:56:42Z,42.805,6.029,13.2961,4.59965,2469.853,2019-9-10T14:57:05Z
2019-09-10T12:59:46Z,42.805,6.029,13.2965,4.59965,2469.914,2019-9-10T15:00:08Z
2019-09-10T13:02:49Z,42.805,6.029,13.2968,4.59986,2469.89,2019-9-10T15:03:11Z
2019-09-10T13:05:52Z,42.805,6.029,13.2967,4.59971,2469.821,2019-9-10T15:06:15Z
2019-09-10T13:08:55Z,42.805,6.029,13.2964,4.59967,2469.876,2019-9-10T15:09:18Z
2019-09-10T13:11:58Z,42.805,6.029,13.2963,4.59967,2469.9,2019-9-10T15:12:21Z
2019-09-10T13:15:02Z,42.805,6.029,13.2967,4.59970,2469.89,2019-9-10T15:15:24Z
2019-09-10T13:18:05Z,42.805,6.029,13.2965,4.59968,2469.89,2019-9-10T15:18:27Z
2019-09-10T13:21:08Z,42.805,6.029,13.2960,4.59966,2469.89,2019-9-10T15:21:31Z
2019-09-10T13:24:11Z,42.805,6.029,13.2961,4.59968,2469.914,2019-9-10T15:24:34Z
2019-09-10T13:27:15Z,42.805,6.029,13.2965,4.59967,2469.9,2019-9-10T15:27:37Z
2019-09-10T13:30:18Z,42.805,6.029,13.2965,4.59968,2469.853,2019-9-10T15:30:41Z
2019-09-10T13:33:21Z,42.805,6.029,13.2960,4.59965,2469.876,2019-9-10T15:33:44Z
2019-09-10T13:36:24Z,42.805,6.029,13.2961,4.59964,2469.867,2019-9-10T15:36:47Z
2019-09-10T13:39:28Z,42.805,6.029,13.2965,4.59963,2469.876,2019-9-10T15:39:50Z
2019-09-10T13:42:31Z,42.805,6.029,13.2970,4.59970,2469.9,2019-9-10T15:42:54Z
2019-09-10T13:45:34Z,42.805,6.029,13.2964,4.59963,2469.876,2019-9-10T15:45:57Z
2019-09-10T13:48:37Z,42.805,6.029,13.2966,4.59968,2469.876,2019-9-10T15:49:00Z
2019-09-10T13:51:41Z,42.805,6.029,13.2967,4.59965,2469.876,2019-9-10T15:52:03Z
2019-09-10T13:54:44Z,42.805,6.029,13.2974,4.59976,2469.9,2019-9-10T15:55:06Z
2019-09-10T13:57:47Z,42.805,6.029,13.2967,4.59973,2469.914,2019-9-10T15:58:10Z
2019-09-10T14:00:50Z,42.805,6.029,13.2962,4.59971,2469.9,2019-9-10T16:01:13Z
2019-09-10T14:03:53Z,42.805,6.029,13.2967,4.59964,2469.9,2019-9-10T16:04:16Z
2019-09-10T14:06:57Z,42.805,6.029,13.2967,4.59961,2469.923,2019-9-10T16:07:19Z
2019-09-10T14:10:00Z,42.805,6.029,13.2976,4.59972,2469.923,2019-9-10T16:10:22Z
2019-09-10T14:13:03Z,42.805,6.029,13.2961,4.59967,2469.914,2019-9-10T16:13:26Z
2019-09-10T14:16:06Z,42.805,6.029,13.2964,4.59966,2469.923,2019-9-10T16:16:29Z
2019-09-10T14:19:09Z,42.805,6.029,13.2961,4.59966,2469.9,2019-9-10T16:19:32Z
2019-09-10T14:22:13Z,42.805,6.029,13.2967,4.59976,2469.923,2019-9-10T16:22:35Z
2019-09-10T14:25:16Z,42.805,6.029,13.2968,4.59973,2469.947,2019-9-10T16:25:38Z
2019-09-10T14:28:19Z,42.805,6.029,13.2965,4.59986,2469.96,2019-9-10T16:28:42Z
2019-09-10T14:31:22Z,42.805,6.029,13.2963,4.59964,2469.914,2019-9-10T16:31:45Z
2019-09-10T14:34:26Z,42.805,6.029,13.2967,4.59973,2469.923,2019-9-10T16:34:48Z
2019-09-10T14:37:29Z,42.805,6.029,13.2970,4.59972,2469.923,2019-9-10T16:37:51Z
2019-09-10T14:40:32Z,42.805,6.029,13.2967,4.59973,2469.96,2019-9-10T16:40:55Z
2019-09-10T14:43:35Z,42.805,6.029,13.2968,4.59971,2469.937,2019-9-10T16:43:58Z
2019-09-10T14:46:38Z,42.805,6.029,13.2966,4.59978,2469.96,2019-9-10T16:47:01Z
2019-09-10T14:49:41Z,42.805,6.029,13.2967,4.59978,2469.96,2019-9-10T16:50:04Z
2019-09-10T14:52:45Z,42.805,6.029,13.2968,4.59969,2469.923,2019-9-10T16:53:07Z
2019-09-10T14:55:48Z,42.805,6.029,13.2964,4.59968,2469.947,2019-9-10T16:56:11Z
2019-09-10T14:58:51Z,42.805,6.029,13.2968,4.59973,2469.947,2019-9-10T16:59:14Z
2019-09-10T15:01:54Z,42.805,6.029,13.2964,4.59968,2469.923,2019-9-10T17:02:17Z
2019-09-10T15:04:57Z,42.805,6.029,13.2967,4.59965,2469.993,2019-9-10T17:05:20Z
2019-09-10T15:08:01Z,42.805,6.029,13.2968,4.59966,2469.947,2019-9-10T17:08:23Z
2019-09-10T15:11:04Z,42.805,6.029,13.2967,4.59975,2470.007,2019-9-10T17:11:27Z
2019-09-10T15:14:07Z,42.805,6.029,13.2961,4.59966,2469.96,2019-9-10T17:14:30Z